カタログに戻る

STARLINK-36262

運用中通信VLEO
NORAD 67201·PAYLOAD·🇺🇸 United States

打ち上げ Dec 17, 2025 から Vandenberg Space Force Base

Loading…

次のパス (今後24時間)

TLE

最新Source: CelesTrak SupGP

元期: Sep 15, 2026, 03:33 UTC

1 67201C 25304K   26258.14840278 -.00029645  00000+0 -24858-2 0  2581
2 67201  70.0012  56.9192 0002816 266.4302 319.9486 14.98323594    19

AllMySatでSTARLINK-36262をリアルタイム追跡

Download on the App Store